CZ-6A DEB, 54951

Orbit data source: Space-Track

CZ-6A DEB, 54951 is space debris in SSO originally from a launch on Fri, 11 Nov 2022 UTC launched from the Taiyaun Space Center, China (TSC). Debris objects in space refer to the collection of defunct objects orbiting the Earth. Examples of debris include non-operational satellites, rocket bodies, and fragments generated from explosions, collisions, or faulty payload assembly.

Loading next visibility...
Identifier
54951, 2022-151SQ
Orbit
SSO
Country
Flag of CNCN / PRC
Related business
Manufacturer
SAST
Mission
Spacecraft
Bus & Motor
Unknown
Mass
Unknown
Launch date (UTC)
2022-11-11 (4 years ago)
Launch vehicle
Unknown
Launch site
Taiyaun Space Center, China (TSC)
Object type
Payload
Rocket body
Debris
Shape & HBR
Unknown shape, 0.1 m
Radar Cross Section
Medium (>0.1 m² and <1 m²)

Expand to show TLE details & history
Last TLE update: 12 hours ago

TLE from 12 hours ago
0 CZ-6A DEB
1 54951U 22151SQ  26207.52164338  .00004148  00000-0  10668-2 0  9994
2 54951  98.5853 240.9767 0084301 243.6933 115.5582 14.48607739194252
Epoch: 2026-07-26T12:31Z
TLE epoch observation values (Epoch: 2026-07-26T12:31:09.988Z)
Latitude
Longitude
108.96671°
Altitude
759.424 km
Speed
7.461 km/s
True Right ascension
16h 03m 54s
True Declination
0° 00' 00"
Sunlit
Object was in daylight at epoch
Visualization orbit readout
Latitude
Unknown
Longitude
Unknown
Altitude
Unknown
Speed
Unknown
Apparent Right ascension
Unknown
Apparent Declination
Unknown
Sunlit
N/A
Visualization observer readout
Local Sidereal Time
13:58:05
Azimuth
Unknown
Elevation
Unknown
Doppler factor
Unknown
Orbital elements
Apogee altitude
787.213 km
Perigee altitude
667.414 km
Semi-major axis
7,105.451 km
Eccentricity
0.00843
Inclination
98.5853°
RAAN
240.9767°
Arg. of periapsis
243.6933°
True anomaly
116.42571°
Mean anomaly
115.5582°
Eccentric anomaly
115.99235°
Mean motion
3.62373 °/min
Orbital period
99.35 mins
BSTAR
0.0010668
Loading maneuver chart data...
Computing Atmospheric mass density...
Loading historical data...
Loading historical data...
Loading historical data...
Loading historical data...
Loading historical data...
Loading historical data...
Loading historical data...

Documentation

Showing up to 5 results
|